Stations météo

réclame
Mon MeteoGroup
Leuchars, Grande-Bretagne (3171): Température de l'air & dewpoint: 18.04.2018 09:00:00 - 24.04.2018 09:00:00 (BST)Leuchars, Grande-Bretagne (3171): Température de l'air -20cm & Température de l'air -100cm: 18.04.2018 09:00:00 - 24.04.2018 09:00:00 (BST)Leuchars, Grande-Bretagne (3171): Vitesse du vent & gusts: 18.04.2018 09:00:00 - 24.04.2018 09:00:00 (BST)Leuchars, Grande-Bretagne (3171): Direction du vent: 18.04.2018 09:00:00 - 24.04.2018 09:00:00 (BST)Leuchars, Grande-Bretagne (3171): reduced air pressure: 18.04.2018 09:00:00 - 24.04.2018 09:00:00 (BST)Leuchars, Grande-Bretagne (3171): visibility: 18.04.2018 09:00:00 - 24.04.2018 09:00:00 (BST)Leuchars, Grande-Bretagne (3171): Ensoleillement: 18.04.2018 09:00:00 - 24.04.2018 09:00:00 (BST)Leuchars, Grande-Bretagne (3171): Quantités de précipitations: 18.04.2018 09:00:00 - 24.04.2018 09:00:00 (BST)
Date & Time tt [°C] td [°C] tt -20cm [°C] tt -100cm [°C] ff [km/h] ff [knt] fx [km/h] fx [knt] dd ppp [hPa] vv [km] sd [min] rr [mm]
24.04.2018 09:00:00 10,0 6,0 - - 29 16 - - WSW - 10 - -
24.04.2018 08:00:00 9,0 5,0 - - 29 16 - - WSW - 10 - -
24.04.2018 07:00:00 7,0 4,0 - - 29 16 - - WSW - 10 - -
24.04.2018 06:00:00 7,0 3,0 - - 22 12 - - W - 10 - -
24.04.2018 05:00:00 8,0 4,0 - - 29 16 - - W - 10 - -
24.04.2018 04:00:00 - - - - - - - - - - - - -
24.04.2018 03:00:00 8,0 5,0 - - 21 11 - - W - 10 - -
24.04.2018 02:00:00 8,0 4,0 - - 26 14 - - W - 10 - -
24.04.2018 01:00:00 10,0 4,0 - - 29 16 - - W - 10 - -
24.04.2018 00:00:00 10,0 5,0 - - 41 22 - - W - 10 - -
23.04.2018 23:00:00 10,0 7,0 - - 41 22 - - WSW - 10 - -
23.04.2018 22:00:00 10,3 8,1 - - 39 21 59 32 WSW 1001,2 10 0 0,0
23.04.2018 21:00:00 10,4 8,0 - - 24 13 - - WSW 1001,6 10 0 0,0
23.04.2018 20:00:00 10,0 7,8 - - 24 13 - - WSW 1002,4 10 0 0,0
23.04.2018 19:00:00 10,3 7,3 - - 24 13 - - WSW 1003,1 10 0 0,0
23.04.2018 18:00:00 10,1 7,0 - - 22 12 - - WSW 1004,4 10 0 0,0
23.04.2018 17:00:00 11,4 4,8 - - 31 17 - - WSW 1004,9 10 0 0,0
23.04.2018 16:00:00 11,9 5,1 - - 28 15 50 27 W 1005,3 10 0 0,0
23.04.2018 15:00:00 12,3 4,8 - - 37 20 52 28 WSW 1005,7 10 18 0,0
23.04.2018 14:00:00 11,8 5,0 - - 39 21 59 32 WSW 1005,9 10 18 0,0
23.04.2018 13:00:00 12,1 7,2 - - 35 19 54 29 W 1006,2 10 6 0,0
23.04.2018 12:00:00 12,5 5,1 - - 28 15 54 29 WNW 1006,2 10 30 0,0
23.04.2018 11:00:00 13,0 3,3 - - 39 21 55 30 W 1005,5 10 60 0,0
23.04.2018 10:00:00 12,3 4,7 7,2 7,9 42 23 52 28 W 1005,4 30 60 0,0
23.04.2018 09:00:00 11,6 5,7 - - 35 19 50 27 W 1004,7 45 60 0,0
23.04.2018 08:00:00 10,2 6,2 - - 29 16 - - W 1004,3 10 42 0,0
23.04.2018 07:00:00 8,7 5,4 - - 22 12 - - W 1003,7 40 24 0,0
23.04.2018 06:00:00 8,4 5,3 - - 28 15 46 25 W 1002,7 35 0 0,0
23.04.2018 05:00:00 8,2 6,0 - - 29 16 - - WSW 1002,2 50 0 0,0
23.04.2018 04:00:00 8,5 6,4 - - 28 15 48 26 W 1001,8 40 0 0,0
23.04.2018 03:00:00 9,1 6,6 - - 24 13 - - WSW 1001,8 45 0 0,0
23.04.2018 02:00:00 8,8 6,5 - - 29 16 - - WSW 1001,9 40 0 0,0
23.04.2018 01:00:00 8,6 5,9 - - 26 14 46 25 WSW 1001,9 10 - 0,0
23.04.2018 00:00:00 8,9 6,0 - - 28 15 - - WSW 1001,8 10 0 0,0
22.04.2018 23:00:00 9,9 7,0 - - 26 14 - - WSW 1002,0 10 0 0,0
22.04.2018 22:00:00 10,2 6,7 - - 21 11 - - SW 1002,1 10 0 0,0
22.04.2018 21:00:00 10,5 6,5 - - 16 9 - - SW 1002,3 10 0 0,0
22.04.2018 20:00:00 10,8 6,3 - - 15 8 - - W 1002,3 50 0 0,0
22.04.2018 19:00:00 11,9 5,2 - - 26 14 - - WSW 1001,9 50 18 0,0
22.04.2018 18:00:00 12,8 6,0 - - 24 13 48 26 W 1002,0 50 30 0,0
22.04.2018 17:00:00 13,3 6,6 - - 34 18 57 31 WSW 1001,7 50 54 0,0
22.04.2018 16:00:00 12,8 7,6 - - 37 20 52 28 WSW 1001,7 30 18 0,0
22.04.2018 15:00:00 12,1 7,5 - - 29 16 - - WSW 1002,0 30 0 0,0
22.04.2018 14:00:00 12,4 6,4 - - 28 15 - - WSW 1002,0 50 0 0,0
22.04.2018 13:00:00 13,1 7,9 - - 24 13 - - W 1002,0 10 0 0,0
22.04.2018 12:00:00 12,9 6,6 - - 8 4 - - SSW 1002,2 10 0 0,0
22.04.2018 11:00:00 11,8 6,9 - - 13 7 - - WSW 1002,6 10 0 0,0
22.04.2018 10:00:00 13,1 5,1 7,2 7,7 24 13 - - WSW 1002,9 10 6 0,0
22.04.2018 09:00:00 10,9 9,9 - - 4 2 - - S 1002,9 5 18 0,0
22.04.2018 08:00:00 8,8 7,9 - - 5 3 - - ESE 1003,3 5 0 0,0
22.04.2018 07:00:00 8,2 7,8 - - 2 1 - - WNW 1003,3 5 0 0,0
22.04.2018 06:00:00 7,6 7,3 - - 4 2 - - NNW 1003,7 4,0 0 0,0
22.04.2018 05:00:00 7,5 7,2 - - 4 2 - - N 1004,8 4,0 0 0,0
22.04.2018 04:00:00 7,3 6,9 - - 2 1 - - N 1006,0 4,6 0 0,0
22.04.2018 03:00:00 7,6 7,4 - - 8 4 - - ENE 1006,8 5 0 0,0
22.04.2018 02:00:00 7,2 7,0 - - 8 4 - - ENE 1008,0 5 0 0,0
22.04.2018 01:00:00 7,2 7,0 - - 4 2 - - ENE 1008,9 6 - 0,0
22.04.2018 00:00:00 7,0 6,8 - - 8 4 - - NNE 1009,9 7 0 0,0
21.04.2018 23:00:00 6,9 6,5 - - 9 5 - - NNE 1010,5 7 0 0,0
21.04.2018 22:00:00 7,1 6,7 - - 11 6 - - NE 1011,3 9 0 0,0
21.04.2018 21:00:00 8,2 7,0 - - 11 6 - - ENE 1012,0 8 6 0,0
21.04.2018 20:00:00 9,5 7,4 - - 9 5 - - E 1012,8 11 60 0,0
21.04.2018 19:00:00 10,7 7,3 - - 15 8 - - ESE 1013,7 18 60 0,0
21.04.2018 18:00:00 12,0 7,4 - - 18 10 - - ESE 1014,5 18 60 0,0
21.04.2018 17:00:00 14,8 8,7 - - 24 13 - - SE 1015,4 28 60 0,0
21.04.2018 16:00:00 15,8 8,2 - - 24 13 - - SE 1016,3 28 60 0,0
21.04.2018 15:00:00 17,2 6,6 - - 21 11 - - SW 1017,2 35 60 0,0
21.04.2018 14:00:00 14,1 7,7 - - 15 8 - - E 1018,3 22 42 0,0
21.04.2018 13:00:00 13,6 7,0 - - 13 7 - - E 1019,2 10 60 0,0
21.04.2018 12:00:00 11,9 7,3 - - 16 9 - - E 1020,1 10 60 0,0
21.04.2018 11:00:00 11,8 6,4 - - 11 6 - - ESE 1020,8 10 60 0,0
21.04.2018 10:00:00 11,8 6,8 7,2 7,5 5 3 - - S 1021,3 10 60 0,0
21.04.2018 09:00:00 9,5 6,4 - - 2 1 - - SW 1021,7 10 60 0,0
21.04.2018 08:00:00 6,9 6,1 - - 2 1 - - WSW 1022,0 28 54 0,0
21.04.2018 07:00:00 3,4 2,6 - - 2 1 - - W 1022,1 35 6 0,0
21.04.2018 06:00:00 4,1 2,2 - - 2 1 - - E 1022,3 45 0 0,0
21.04.2018 05:00:00 5,0 3,7 - - 8 4 - - W 1022,1 30 0 0,0
21.04.2018 04:00:00 3,5 1,7 - - 4 2 - - NNW 1022,5 45 0 0,0
21.04.2018 03:00:00 6,0 4,2 - - 4 2 - - NW 1022,6 45 0 0,0
21.04.2018 02:00:00 6,3 4,1 - - 11 6 - - W 1022,8 45 0 0,0
21.04.2018 01:00:00 7,3 4,7 - - 16 9 - - W 1023,0 10 - 0,0
21.04.2018 00:00:00 8,2 4,5 - - 11 6 - - W 1023,2 10 0 0,0
20.04.2018 23:00:00 7,8 4,3 - - 5 3 - - WSW 1023,0 10 0 0,0
20.04.2018 22:00:00 9,7 4,9 - - 11 6 - - W 1022,6 10 0 0,0
20.04.2018 21:00:00 11,5 4,8 - - 16 9 - - W 1022,6 10 0 0,0
20.04.2018 20:00:00 12,9 5,4 - - 21 11 - - W 1021,9 50 54 0,0
20.04.2018 19:00:00 14,0 4,9 - - 29 16 46 25 W 1021,7 35 48 0,0
20.04.2018 18:00:00 14,6 5,6 - - 28 15 54 29 WNW 1021,7 45 36 0,0
20.04.2018 17:00:00 16,2 5,7 - - 35 19 48 26 W 1021,4 40 36 0,0
20.04.2018 16:00:00 15,5 4,7 - - 29 16 50 27 WNW 1021,4 45 36 0,0
20.04.2018 15:00:00 17,2 6,1 - - 37 20 52 28 WSW 1021,2 25 54 0,0
20.04.2018 14:00:00 16,0 5,1 - - 31 17 48 26 W 1021,2 26 42 0,0
20.04.2018 13:00:00 16,1 6,4 - - 34 18 46 25 W 1021,1 10 60 0,0
20.04.2018 12:00:00 15,3 8,1 - - 29 16 - - WSW 1021,2 10 60 0,0
20.04.2018 11:00:00 14,6 8,9 - - 29 16 - - WSW 1021,2 10 60 0,0
20.04.2018 10:00:00 13,6 9,3 7,0 7,2 24 13 - - W 1021,2 30 60 0,0
20.04.2018 09:00:00 12,1 9,8 - - 24 13 - - WSW 1021,3 16 54 0,0
20.04.2018 08:00:00 9,9 8,9 - - 18 10 - - W 1021,5 11 54 0,0
20.04.2018 07:00:00 9,0 8,1 - - 11 6 - - W 1021,3 9 6 0,0
20.04.2018 06:00:00 8,7 8,3 - - 8 4 - - WNW 1021,4 9 0 0,0
20.04.2018 05:00:00 7,3 6,7 - - 5 3 - - SW 1021,2 8 0 0,0
20.04.2018 04:00:00 9,1 8,4 - - 9 5 - - WNW 1021,6 13 0 0,0
20.04.2018 03:00:00 8,4 7,8 - - 5 3 - - W 1021,7 17 0 0,0
20.04.2018 02:00:00 9,1 8,2 - - 8 4 - - W 1022,1 24 0 0,0
20.04.2018 01:00:00 9,9 8,2 - - 9 5 - - W 1022,6 40 - 0,0
20.04.2018 00:00:00 11,0 9,6 - - 11 6 - - W 1022,6 30 0 0,0
19.04.2018 23:00:00 10,2 8,4 - - 8 4 - - W 1022,8 50 0 0,0
19.04.2018 22:00:00 11,5 8,6 - - 5 3 - - SSW 1022,8 45 0 0,0
19.04.2018 21:00:00 13,6 9,6 - - 4 2 - - SE 1022,6 50 0 0,0
19.04.2018 20:00:00 15,8 9,8 - - 9 5 - - WNW 1022,0 50 54 0,0
19.04.2018 19:00:00 17,7 9,8 - - 16 9 - - W 1021,9 35 48 0,0
19.04.2018 18:00:00 18,2 11,1 - - 18 10 - - WSW 1021,8 10 42 0,0
19.04.2018 17:00:00 17,5 10,9 - - 26 14 - - W 1021,7 10 42 0,0
19.04.2018 16:00:00 18,6 11,7 - - 22 12 - - W 1021,7 10 48 0,0
19.04.2018 15:00:00 19,5 11,8 - - 29 16 - - W 1021,4 10 54 0,0
19.04.2018 14:00:00 20,0 12,2 - - 29 16 - - WSW 1021,1 10 54 0,0
19.04.2018 13:00:00 19,2 11,4 - - 28 15 - - WSW 1021,0 10 54 0,0
19.04.2018 12:00:00 19,3 11,5 - - 26 14 - - WSW 1020,9 10 60 0,0
19.04.2018 11:00:00 18,1 11,6 - - 18 10 - - SW 1020,8 24 42 0,0
19.04.2018 10:00:00 16,6 10,9 6,7 7,0 13 7 - - W 1020,7 10 60 0,0
19.04.2018 09:00:00 14,9 10,1 - - 4 2 - - NNW 1020,4 24 54 -
19.04.2018 08:00:00 11,2 10,1 - - 8 4 - - NNE 1020,2 10 60 -
19.04.2018 07:00:00 8,7 8,0 - - 4 2 - - E 1019,6 22 12 -
19.04.2018 06:00:00 6,5 5,6 - - 2 1 - - WSW 1019,6 7 0 -
19.04.2018 05:00:00 7,1 6,1 - - 5 3 - - N 1019,6 8 0 -
19.04.2018 04:00:00 8,8 7,3 - - 9 5 - - S 1019,7 11 0 -
19.04.2018 03:00:00 10,6 9,4 - - 15 8 - - SSW 1019,8 10 0 -
19.04.2018 02:00:00 8,7 8,0 - - 9 5 - - NE 1019,9 12 0 0,0
19.04.2018 01:00:00 9,3 8,1 - - 5 3 - - N 1020,1 10 - 0,0
19.04.2018 00:00:00 10,6 8,6 - - 11 6 - - E 1020,3 10 0 0,0
18.04.2018 23:00:00 9,8 8,2 - - 13 7 - - ESE 1020,6 10 0 0,0
18.04.2018 22:00:00 10,5 8,7 - - 13 7 - - ESE 1021,3 10 0 0,0
18.04.2018 21:00:00 11,4 9,0 - - 4 2 - - N 1021,6 10 0 0,0
18.04.2018 20:00:00 12,6 9,3 - - 16 9 - - SE 1021,3 10 0 0,0
18.04.2018 19:00:00 13,9 10,1 - - 11 6 - - SW 1021,4 10 0 0,0
18.04.2018 18:00:00 15,8 10,9 - - 18 10 - - SSW 1021,5 10 0 0,0
18.04.2018 17:00:00 15,9 11,4 - - 22 12 - - SW 1021,6 10 0 0,0
18.04.2018 16:00:00 15,5 10,6 - - 24 13 - - SW 1021,8 10 12 0,0
18.04.2018 15:00:00 16,3 11,1 - - 29 16 50 27 SW 1021,8 10 60 0,0
18.04.2018 14:00:00 17,1 11,5 - - 28 15 50 27 WSW 1021,2 10 54 0,0
18.04.2018 13:00:00 16,3 11,4 - - 31 17 - - WSW 1021,2 10 24 0,0
18.04.2018 12:00:00 15,5 11,5 - - 21 11 - - SSW 1020,2 50 18 0,0
18.04.2018 11:00:00 12,1 9,9 - - 16 9 - - S 1020,1 10 0 0,0
18.04.2018 10:00:00 12,3 9,6 6,2 6,9 13 7 - - S 1019,7 10 0 0,0
18.04.2018 09:00:00 12,3 10,1 - - 22 12 - - SSW 1018,9 10 0 0,0

tt = Température de l'air
td = dewpoint
tt -20cm = Température de l'air -20cm
tt -100cm = Température de l'air -100cm
ff = Vitesse du vent
fx = gusts
dd = Direction du vent
ppp = reduced air pressure
vv = visibility
sd = Ensoleillement
rr = Quantités de précipitations

stations d'obs. à proximité